Petersburg, WV

12:35 PM EDT on July 28, 2017 (GMT -0400)
Petersburg

Weather History for KW99 - October, 2012

Change the Weather History Date:

Friday, October 12, 2012

  Actual Average (KEKN) Record (KEKN)
Temperature  
Mean Temperature 48 °F -  
Max Temperature 62 °F 64 °F 84 °F (2008)
Min Temperature 33 °F 40 °F 16 °F (1906)
Degree Days  
Heating Degree Days 18    
Moisture  
Dew Point 36 °F    
Average Humidity 72    
Maximum Humidity 94    
Minimum Humidity 40    
Precipitation  
Precipitation 0.00 in - - ()
Sea Level Pressure  
Sea Level Pressure 30.28 in    
Wind  
Wind Speed 2 mph (NNW)    
Max Wind Speed 17 mph    
Max Gust Speed 24 mph    
Visibility 9 miles    
Events      
Averages and records for this station are not official NWS values.
T = Trace of Precipitation, MM = Missing Value Source: NWS Daily Summary

Daily Weather History Graph

Daily Weather History Graph

Search for Another Location

Airport or City:

Trip Planner

Search our weather history database for the weather conditions in past years. The results will help you decide how hot, cold, wet, or windy it might be!

Date:

Astronomy

Oct. 12, 2012 Rise Set
Actual Time 7:23 AM EDT 6:41 PM EDT
Civil Twilight 6:56 AM EDT 7:08 PM EDT
Nautical Twilight 6:25 AM EDT 7:39 PM EDT
Astronomical Twilight 5:54 AM EDT 8:10 PM EDT
Moon 4:06 AM EDT (10/12) 4:49 PM EDT (10/12)
Length of Visible Light 12h 11m
Length of Day
11h 18m
Waning Crescent, 11% of the Moon is Illuminated
Oct 12
Waning Crescent
Oct 15
New
Oct 21
First Quarter
Oct 29
Full
Nov 6
Last Quarter

Hourly Weather History & Observations

Time (EDT) Temp. Windchill Dew Point Humidity Pressure Visibility Wind Dir Wind Speed Gust Speed Precip Events Conditions
12:15 AM 38.8 °F - 36.3 °F 91% 30.19 in 10.0 mi Calm Calm - N/A   Clear
1:15 AM 40.3 °F 37.1 °F 37.9 °F 91% 30.19 in 10.0 mi South 4.6 mph - N/A   Clear
1:35 AM 41.4 °F - 38.8 °F 91% 30.19 in 10.0 mi Calm Calm - N/A   Clear
1:55 AM 40.6 °F - 37.6 °F 89% 30.19 in 10.0 mi Calm Calm - N/A   Clear
2:15 AM 38.7 °F - 35.6 °F 89% 30.19 in 10.0 mi Calm Calm - N/A   Clear
2:55 AM 37.0 °F - 34.5 °F 91% 30.19 in 10.0 mi Calm Calm - N/A   Clear
4:15 AM 37.0 °F - 34.5 °F 91% 30.18 in 10.0 mi Calm Calm - N/A   Clear
4:35 AM 36.9 °F - 34.5 °F 91% 30.18 in 7.0 mi Calm Calm - N/A   Clear
4:55 AM 36.1 °F - 33.8 °F 91% 30.19 in 7.0 mi Calm Calm - N/A   Clear
5:15 AM 36.0 °F - 33.6 °F 91% 30.19 in 7.0 mi Calm Calm - N/A   Clear
5:35 AM 36.5 °F - 34.5 °F 93% 30.20 in 7.0 mi Calm Calm - N/A   Clear
5:55 AM 36.7 °F - 34.5 °F 92% 30.19 in 7.0 mi Calm Calm - N/A   Clear
6:15 AM 36.7 °F - 34.7 °F 93% 30.20 in 7.0 mi Calm Calm - N/A   Clear
6:35 AM 36.9 °F - 34.7 °F 92% 30.22 in 10.0 mi Calm Calm - N/A   Clear
6:55 AM 36.5 °F - 34.5 °F 93% 30.22 in 4.0 mi Calm Calm - N/A   Clear
7:15 AM 35.2 °F - 33.3 °F 92% 30.22 in 4.0 mi Calm Calm - N/A   Clear
7:35 AM 33.3 °F - 31.8 °F 94% 30.23 in 7.0 mi Calm Calm - N/A   Clear
7:55 AM 34.0 °F - 32.2 °F 93% 30.23 in 5.0 mi Calm Calm - N/A   Clear
8:15 AM 34.3 °F - 32.4 °F 92% 30.23 in 5.0 mi Calm Calm - N/A   Clear
8:35 AM 37.6 °F - 35.8 °F 93% 30.24 in 5.0 mi Calm Calm - N/A   Clear
8:55 AM 40.3 °F - 37.8 °F 91% 30.24 in 4.0 mi Calm Calm - N/A   Clear
9:15 AM 43.3 °F - 39.7 °F 87% 30.25 in 5.0 mi Calm Calm - N/A   Clear
9:35 AM 45.9 °F - 40.8 °F 83% 30.25 in 7.0 mi Calm Calm - N/A   Clear
9:55 AM 50.9 °F - 42.8 °F 74% 30.25 in 7.0 mi Calm Calm - N/A   Clear
10:15 AM 56.3 °F - 39.9 °F 54% 30.25 in 7.0 mi Calm Calm - N/A   Clear
10:55 AM 61.2 °F - 38.3 °F 43% 30.25 in 10.0 mi NW 11.5 mph 18.4 mph N/A   Clear
11:15 AM 61.9 °F - 37.2 °F 40% 30.26 in 10.0 mi WNW 9.2 mph 16.1 mph N/A   Clear
11:35 AM 61.9 °F - 37.4 °F 40% 30.26 in 10.0 mi NW 12.7 mph 18.4 mph N/A   Clear
12:15 PM 62.8 °F - 38.5 °F 41% 30.27 in 10.0 mi NW 9.2 mph 18.4 mph N/A   Clear
12:35 PM 62.8 °F - 38.8 °F 41% 30.27 in 10.0 mi NNW 9.2 mph 17.3 mph N/A   Clear
12:55 PM 62.8 °F - 38.7 °F 41% 30.26 in 10.0 mi North 8.1 mph - N/A   Clear
1:15 PM 62.6 °F - 40.3 °F 44% 30.27 in 10.0 mi NNE 10.4 mph 16.1 mph N/A   Clear
1:35 PM 61.2 °F - 41.0 °F 47% 30.27 in 10.0 mi ENE 12.7 mph 16.1 mph N/A   Clear
1:55 PM 61.5 °F - 40.8 °F 47% 30.27 in 10.0 mi NNW 10.4 mph 20.7 mph N/A   Scattered Clouds
2:35 PM 58.5 °F - 40.3 °F 51% 30.29 in 10.0 mi NNW 17.3 mph 24.2 mph N/A   Overcast
3:35 PM 59.0 °F - 40.1 °F 50% 30.32 in 10.0 mi WNW 10.4 mph 16.1 mph N/A   Mostly Cloudy
4:15 PM 58.5 °F - 38.7 °F 48% 30.31 in 10.0 mi NW 9.2 mph - N/A   Scattered Clouds
4:55 PM 58.5 °F - 38.8 °F 48% 30.32 in 10.0 mi NNE 5.8 mph - N/A   Scattered Clouds
5:15 PM 57.7 °F - 36.3 °F 45% 30.32 in 10.0 mi NNE 5.8 mph - N/A   Clear
5:35 PM 57.4 °F - 35.6 °F 44% 30.33 in 10.0 mi North 5.8 mph - N/A   Clear
5:55 PM 56.7 °F - 33.8 °F 42% 30.33 in 10.0 mi North 3.5 mph - N/A   Clear
6:15 PM 55.6 °F - 33.8 °F 44% 30.34 in 10.0 mi North 4.6 mph - N/A   Clear
6:35 PM 53.6 °F - 32.7 °F 45% 30.35 in 10.0 mi North 5.8 mph - N/A   Clear
7:15 PM 50.7 °F - 33.1 °F 51% 30.37 in 10.0 mi Calm Calm - N/A   Clear
7:55 PM 46.2 °F - 34.2 °F 63% 30.38 in 10.0 mi Calm Calm - N/A   Clear
8:15 PM 42.8 °F - 34.7 °F 73% 30.39 in 10.0 mi Calm Calm - N/A   Clear
8:35 PM 41.9 °F - 35.1 °F 77% 30.41 in 10.0 mi Calm Calm - N/A   Clear
9:15 PM 40.3 °F - 34.5 °F 80% 30.42 in 10.0 mi Calm Calm - N/A   Clear
9:35 PM 38.8 °F - 34.7 °F 85% 30.43 in 10.0 mi Calm Calm - N/A   Clear
9:55 PM 37.4 °F - 33.4 °F 86% 30.44 in 10.0 mi Calm Calm - N/A   Clear
10:15 PM 38.8 °F - 34.2 °F 83% 30.44 in 10.0 mi Calm Calm - N/A   Clear
10:35 PM 37.6 °F - 34.0 °F 87% 30.44 in 10.0 mi Calm Calm - N/A   Clear
10:55 PM 37.8 °F - 34.2 °F 87% 30.44 in 10.0 mi Calm Calm - N/A   Clear
11:15 PM 36.3 °F - 33.1 °F 88% 30.45 in 10.0 mi Calm Calm - N/A   Clear
11:35 PM 35.4 °F - 32.7 °F 90% 30.45 in 10.0 mi Calm Calm - N/A   Clear